When you browse on this site, cookies collect data to enhance your experience and personalize the content and advertising you see.
Visit our Privacy Policy to learn more. By continuing to use the site, you agree to this use of cookies and data.

Hourly Weather Portsmouth

Today, 13 August, Thursday

Time Temperature Precipitation Wind Pressure Humidity
00:00 +27°C° 0.1 mm 3 mps 761 mmHg 85%
01:00 +27°C° 0.1 mm 3 mps 761 mmHg 86%
02:00 +27°C° 0 mm 2 mps 761 mmHg 86%
03:00 +27°C° 0 mm 2 mps 761 mmHg 86%
04:00 +26°C° 0 mm 2 mps 761 mmHg 87%
05:00 +27°C° 0 mm 2 mps 761 mmHg 85%
06:00 +28°C° 0 mm 2 mps 761 mmHg 83%
07:00 +28°C° 0 mm 2 mps 762 mmHg 81%
08:00 +30°C° 0.1 mm 2 mps 762 mmHg 74%
09:00 +31°C° 0.1 mm 3 mps 762 mmHg 68%
10:00 +33°C° 0.1 mm 3 mps 762 mmHg 61%
11:00 +34°C° 1.1 mm 4 mps 761 mmHg 61%
12:00 +34°C° 1.1 mm 4 mps 761 mmHg 61%
13:00 +34°C° 1.1 mm 5 mps 761 mmHg 61%
14:00 +33°C° 0.7 mm 5 mps 760 mmHg 63%
15:00 +33°C° 0.7 mm 5 mps 760 mmHg 64%
16:00 +33°C° 0.7 mm 5 mps 760 mmHg 66%
17:00 +32°C° 0.3 mm 4 mps 760 mmHg 69%
18:00 +30°C° 0.3 mm 4 mps 760 mmHg 72%
19:00 +29°C° 0.3 mm 3 mps 760 mmHg 75%
20:00 +29°C° 0.1 mm 3 mps 760 mmHg 77%
21:00 +28°C° 0.1 mm 2 mps 760 mmHg 78%
22:00 +28°C° 0.1 mm 2 mps 760 mmHg 80%
23:00 +28°C° 0.1 mm 1 mps 760 mmHg 81%

Tomorrow, 14 August, Friday

Time Temperature Precipitation Wind Pressure Humidity
00:00 +27°C° 0.1 mm 1 mps 759 mmHg 82%
01:00 +27°C° 0.1 mm 1 mps 759 mmHg 84%
02:00 +27°C° 0 mm 1 mps 759 mmHg 84%
03:00 +25°C° 0 mm 0 mps 759 mmHg 85%
04:00 +25°C° 0 mm 0 mps 759 mmHg 86%
05:00 +25°C° 0 mm 0 mps 759 mmHg 84%
06:00 +26°C° 0 mm 0 mps 759 mmHg 83%
07:00 +26°C° 0 mm 0 mps 759 mmHg 81%
08:00 +27°C° 0.2 mm 0 mps 759 mmHg 77%
09:00 +30°C° 0.2 mm 1 mps 759 mmHg 73%
10:00 +31°C° 0.2 mm 1 mps 759 mmHg 69%
11:00 +32°C° 0.2 mm 1 mps 759 mmHg 66%
12:00 +33°C° 0.2 mm 1 mps 759 mmHg 63%
13:00 +34°C° 0.2 mm 1 mps 759 mmHg 60%
14:00 +33°C° 0.3 mm 1 mps 758 mmHg 61%
15:00 +34°C° 0.3 mm 2 mps 758 mmHg 63%
16:00 +34°C° 0.3 mm 2 mps 757 mmHg 64%
17:00 +31°C° 0.6 mm 2 mps 758 mmHg 69%
18:00 +30°C° 0.6 mm 2 mps 758 mmHg 74%
19:00 +29°C° 0.6 mm 2 mps 758 mmHg 79%
20:00 +29°C° 0.2 mm 2 mps 758 mmHg 80%
21:00 +28°C° 0.2 mm 2 mps 758 mmHg 80%
22:00 +28°C° 0.2 mm 1 mps 758 mmHg 81%
23:00 +28°C° 0 mm 1 mps 758 mmHg 82%

Day after tomorrow, 15 August, Saturday

Time Temperature Precipitation Wind Pressure Humidity
00:00 +28°C° 0 mm 1 mps 758 mmHg 82%
01:00 +27°C° 0 mm 1 mps 757 mmHg 83%
02:00 +27°C° 0.1 mm 1 mps 757 mmHg 84%
03:00 +27°C° 0.1 mm 1 mps 757 mmHg 84%
04:00 +27°C° 0.1 mm 1 mps 757 mmHg 85%
05:00 +27°C° 0 mm 2 mps 757 mmHg 84%
06:00 +28°C° 0 mm 2 mps 758 mmHg 84%
07:00 +28°C° 0 mm 2 mps 758 mmHg 84%
08:00 +29°C° 0.4 mm 3 mps 758 mmHg 82%
09:00 +29°C° 0.4 mm 3 mps 758 mmHg 80%
10:00 +29°C° 0.4 mm 3 mps 758 mmHg 78%
11:00 +29°C° 0.6 mm 3 mps 758 mmHg 79%
12:00 +29°C° 0.6 mm 3 mps 758 mmHg 81%
13:00 +29°C° 0.6 mm 3 mps 758 mmHg 83%
14:00 +29°C° 0.4 mm 3 mps 757 mmHg 80%
15:00 +30°C° 0.4 mm 3 mps 757 mmHg 76%
16:00 +32°C° 0.4 mm 4 mps 757 mmHg 73%
17:00 +30°C° 0.5 mm 3 mps 757 mmHg 77%
18:00 +29°C° 0.5 mm 3 mps 757 mmHg 80%
19:00 +28°C° 0.5 mm 3 mps 757 mmHg 84%
20:00 +28°C° 0.2 mm 3 mps 757 mmHg 84%
21:00 +27°C° 0.2 mm 3 mps 757 mmHg 85%
22:00 +27°C° 0.2 mm 3 mps 757 mmHg 85%
23:00 +27°C° 0.1 mm 3 mps 757 mmHg 86%

16 August, Sunday

Time Temperature Precipitation Wind Pressure Humidity
00:00 +27°C° 0.1 mm 3 mps 756 mmHg 86%
01:00 +27°C° 0.1 mm 3 mps 756 mmHg 87%
02:00 +27°C° 0 mm 2 mps 756 mmHg 88%
03:00 +26°C° 0 mm 2 mps 756 mmHg 89%
04:00 +26°C° 0 mm 2 mps 756 mmHg 90%
05:00 +27°C° 0 mm 2 mps 756 mmHg 89%
06:00 +27°C° 0 mm 2 mps 756 mmHg 88%
07:00 +27°C° 0 mm 3 mps 756 mmHg 87%
08:00 +29°C° 0.2 mm 3 mps 756 mmHg 81%
09:00 +31°C° 0.2 mm 3 mps 756 mmHg 74%
10:00 +33°C° 0.2 mm 4 mps 756 mmHg 67%
11:00 +34°C° 0.2 mm 4 mps 755 mmHg 64%
12:00 +35°C° 0.2 mm 4 mps 755 mmHg 61%
13:00 +35°C° 0.2 mm 4 mps 755 mmHg 58%
14:00 +35°C° 0.3 mm 4 mps 754 mmHg 60%
15:00 +34°C° 0.3 mm 4 mps 754 mmHg 62%
16:00 +34°C° 0.3 mm 4 mps 754 mmHg 64%
17:00 +33°C° 0.1 mm 4 mps 754 mmHg 68%
18:00 +32°C° 0.1 mm 4 mps 754 mmHg 72%
19:00 +30°C° 0.1 mm 3 mps 754 mmHg 76%
20:00 +29°C° 0.1 mm 3 mps 755 mmHg 77%
21:00 +28°C° 0.1 mm 3 mps 755 mmHg 78%
22:00 +28°C° 0.1 mm 3 mps 755 mmHg 80%
23:00 +27°C° 0 mm 3 mps 755 mmHg 81%

17 August, Monday

Time Temperature Precipitation Wind Pressure Humidity
00:00 +27°C° 0 mm 3 mps 755 mmHg 82%
01:00 +26°C° 0 mm 2 mps 755 mmHg 83%
02:00 +26°C° 0 mm 2 mps 755 mmHg 84%
03:00 +26°C° 0 mm 3 mps 755 mmHg 85%
04:00 +26°C° 0 mm 3 mps 755 mmHg 86%
05:00 +26°C° 0 mm 3 mps 755 mmHg 86%
06:00 +26°C° 0 mm 3 mps 756 mmHg 87%
07:00 +27°C° 0 mm 4 mps 756 mmHg 87%
08:00 +27°C° 0.1 mm 4 mps 756 mmHg 84%
09:00 +27°C° 0.1 mm 4 mps 757 mmHg 82%
10:00 +28°C° 0.1 mm 4 mps 757 mmHg 79%
11:00 +29°C° 0 mm 4 mps 757 mmHg 72%
12:00 +30°C° 0 mm 4 mps 757 mmHg 66%
13:00 +32°C° 0 mm 4 mps 757 mmHg 59%
14:00 +31°C° 0 mm 3 mps 757 mmHg 57%
15:00 +33°C° 0 mm 3 mps 757 mmHg 55%
16:00 +33°C° 0 mm 3 mps 756 mmHg 53%
17:00 +31°C° 0 mm 3 mps 757 mmHg 56%
18:00 +29°C° 0 mm 3 mps 757 mmHg 59%
19:00 +28°C° 0 mm 2 mps 757 mmHg 62%
20:00 +28°C° 0 mm 2 mps 757 mmHg 64%
21:00 +27°C° 0 mm 2 mps 758 mmHg 67%
22:00 +27°C° 0 mm 1 mps 758 mmHg 70%
23:00 +26°C° 0 mm 1 mps 758 mmHg 72%

18 August, Tuesday

Time Temperature Precipitation Wind Pressure Humidity
00:00 +26°C° 0 mm 1 mps 758 mmHg 74%
01:00 +25°C° 0 mm 1 mps 758 mmHg 77%
02:00 +25°C° 0 mm 1 mps 758 mmHg 77%
03:00 +25°C° 0 mm 2 mps 758 mmHg 76%
04:00 +25°C° 0 mm 2 mps 758 mmHg 76%
05:00 +25°C° 0 mm 2 mps 758 mmHg 74%
06:00 +26°C° 0 mm 2 mps 758 mmHg 71%
07:00 +26°C° 0 mm 2 mps 759 mmHg 69%
08:00 +28°C° 0 mm 2 mps 759 mmHg 62%
09:00 +29°C° 0 mm 2 mps 759 mmHg 55%
10:00 +31°C° 0 mm 2 mps 759 mmHg 49%
11:00 +32°C° 0 mm 2 mps 759 mmHg 47%
12:00 +32°C° 0 mm 2 mps 759 mmHg 46%
13:00 +34°C° 0 mm 2 mps 759 mmHg 45%
14:00 +32°C° 0.1 mm 2 mps 759 mmHg 50%
15:00 +31°C° 0.1 mm 3 mps 759 mmHg 56%
16:00 +30°C° 0.1 mm 3 mps 759 mmHg 61%
17:00 +29°C° 0.2 mm 3 mps 759 mmHg 66%
18:00 +28°C° 0.2 mm 3 mps 759 mmHg 70%
19:00 +27°C° 0.2 mm 3 mps 759 mmHg 75%
20:00 +27°C° 0.1 mm 3 mps 759 mmHg 76%
21:00 +26°C° 0.1 mm 3 mps 760 mmHg 78%
22:00 +26°C° 0.1 mm 3 mps 760 mmHg 79%
23:00 +26°C° 0.3 mm 2 mps 760 mmHg 80%
Show more